Theta_e
327 318 317 312 298 295 293 298 304 303 303 305 315 320 318 320 318 311 337 344 354 358 361 363 364 363 363 362 361 360 360 359 360 361 361 361 361 361 361 361 360 358 356 354 350 347 342 339 338
324 319 315 305 293 289 294 300 301 302 305 306 311 315 317 316 327 336 337 348 354 358 360 360 363 362 362 362 360 360 360 360 360 360 361 361 360 360 360 360 359 356 353 350 346 343 339 337 336
314 318 307 299 292 291 294 300 302 307 308 307 305 315 317 318 326 329 341 348 354 356 358 361 364 362 361 361 360 359 360 360 360 360 361 361 360 359 359 360 358 354 351 348 345 341 340 338 337
309 308 307 297 294 300 302 304 305 306 308 308 308 312 318 324 327 336 346 349 351 352 357 363 363 362 361 361 360 360 360 360 360 360 361 360 359 359 359 359 357 355 350 347 344 343 342 339 338
308 304 297 294 297 301 307 309 307 306 305 305 312 311 313 319 332 343 345 346 345 349 355 361 363 362 362 362 360 360 360 360 360 360 360 360 359 358 359 358 356 355 351 347 344 345 345 343 342
301 301 293 292 297 304 307 310 307 310 310 311 308 311 313 319 324 333 345 344 345 348 355 359 363 361 361 361 360 359 359 360 360 360 360 360 359 358 358 357 356 354 352 350 348 347 345 344 344
298 295 291 295 297 301 306 310 309 309 312 313 309 309 312 314 316 321 339 345 343 349 351 357 358 359 361 361 359 359 359 359 359 359 359 359 358 357 357 356 355 354 351 350 349 347 346 345 345
300 297 293 295 297 298 307 307 307 307 309 316 315 308 307 313 317 319 326 340 342 348 349 352 356 357 356 359 360 359 359 359 358 359 359 358 357 357 356 353 353 353 352 350 350 349 348 347 346
302 291 290 294 297 300 307 303 309 311 307 314 316 314 317 317 316 315 331 342 344 347 347 349 353 355 354 354 358 359 361 360 359 359 359 354 350 350 352 351 353 353 352 351 351 350 349 348 347
297 290 294 299 301 300 304 305 306 306 306 307 310 317 318 317 313 313 313 339 342 343 345 346 349 351 353 355 355 356 358 357 356 356 355 351 347 345 349 350 352 353 352 352 351 351 351 349 339
296 294 298 300 303 303 303 305 307 304 301 306 307 312 315 314 312 312 312 318 343 345 345 345 346 349 351 352 352 352 354 354 353 352 350 346 345 345 345 341 344 343 349 342 345 343 342 340 338
292 298 300 301 303 303 302 306 305 304 305 311 311 313 314 312 311 311 314 321 342 344 344 344 344 345 345 350 350 351 350 350 348 349 347 344 339 337 338 337 338 338 340 340 338 337 336 336 336
291 295 300 302 302 302 304 303 303 304 307 310 310 313 312 312 311 310 313 319 330 335 342 342 344 343 341 346 346 348 348 348 347 345 346 344 337 335 336 336 336 338 338 339 336 334 334 333 333
295 295 296 297 298 299 300 302 303 305 308 308 309 309 312 312 310 309 311 318 323 329 338 340 343 343 340 345 342 343 344 346 346 345 345 343 339 336 335 335 338 337 338 338 337 336 334 332 333
297 292 294 295 296 296 298 295 297 302 304 304 305 308 310 313 313 311 312 316 322 324 330 339 342 342 340 344 344 342 340 342 342 343 343 344 341 336 337 338 338 339 340 339 338 336 336 334 336
292 289 285 292 297 298 296 291 299 301 301 302 303 305 310 312 312 313 311 312 320 323 325 330 345 342 342 345 346 345 342 342 342 343 343 344 344 342 336 337 341 340 339 339 337 337 335 333 332
287 284 287 290 296 295 294 292 298 301 300 300 302 302 305 309 311 311 313 314 319 320 322 324 333 336 340 343 347 345 345 341 342 343 344 344 344 345 345 341 340 341 339 337 337 335 332 329 329
284 285 288 288 293 293 291 292 298 300 299 300 301 302 302 303 306 311 312 316 319 319 321 322 328 332 340 341 343 342 341 344 342 343 344 345 345 345 344 344 343 342 339 337 336 334 333 331 330
291 290 289 293 295 293 292 292 295 297 297 298 299 298 300 301 306 313 317 321 321 320 320 322 323 324 332 339 337 336 336 338 341 341 339 348 347 348 347 345 343 342 338 337 336 333 330 328 329
293 290 289 292 295 293 292 291 295 296 297 297 297 298 300 300 304 313 316 318 317 318 319 321 325 325 324 336 338 336 336 337 338 340 341 340 342 348 347 345 343 342 340 336 335 332 329 329 330
292 289 289 289 293 293 291 289 292 296 297 299 299 300 300 301 302 310 314 314 316 317 317 316 317 320 323 326 333 338 337 340 335 335 336 339 339 342 347 347 345 341 342 340 336 334 331 331 328
287 296 295 293 289 284 291 282 289 292 294 297 297 296 297 300 302 308 312 311 315 316 315 315 317 319 319 320 322 327 332 331 335 335 336 338 339 338 339 345 346 344 342 338 336 336 334 331 327
293 298 295 294 288 284 286 281 288 291 291 294 295 297 298 300 301 305 310 311 312 314 312 315 315 315 317 317 319 321 321 326 329 330 331 336 338 339 337 337 340 342 340 338 337 335 334 334 331
300 295 292 291 285 280 286 283 286 288 291 293 298 301 302 302 300 304 309 311 310 311 313 314 315 315 317 318 316 318 319 320 323 323 325 329 336 338 338 338 338 340 340 338 337 336 336 336 336
294 288 281 278 280 281 288 284 286 292 295 297 298 299 301 303 300 307 308 307 308 306 309 313 313 312 317 318 319 319 319 320 321 321 320 320 322 323 334 339 338 339 339 339 339 336 335 337 337
290 287 279 275 275 280 289 284 288 295 298 300 301 299 300 301 303 306 306 307 307 306 307 309 309 309 313 314 315 315 318 320 322 322 322 321 321 322 325 330 340 339 339 339 339 338 338 338 338
291 287 293 285 285 281 283 288 294 297 297 300 300 301 300 298 303 304 305 306 304 305 305 307 309 310 313 315 315 315 317 318 318 319 321 322 325 327 328 328 331 336 339 340 339 338 337 338 338
292 294 283 285 272 277 282 285 285 291 293 298 297 297 300 301 301 301 303 304 304 305 306 307 310 311 313 314 314 316 317 319 320 320 320 321 323 325 326 328 327 328 331 332 338 338 338 337 338
287 287 287 285 281 274 277 280 293 292 295 295 299 300 298 302 300 301 301 304 305 305 306 308 310 311 309 309 310 313 316 319 320 322 324 324 325 328 329 330 331 330 330 331 331 334 340 340 337
292 289 287 279 280 285 283 283 296 296 297 296 296 301 302 302 302 302 303 301 301 302 304 306 310 309 309 310 310 310 310 310 312 314 317 318 319 322 325 326 329 330 331 330 332 332 333 336 342
Wind_Speed
7 9 1 4 5 5 6 3 4 8 8 5 5 9 4 5 6 6 4 14 17 16 16 15 18 19 19 19 18 16 17 17 17 17 16 16 16 16 16 14 13 13 12 10 9 8 6 6 6
6 6 4 2 5 1 6 4 7 5 7 7 2 5 12 4 6 7 5 10 19 17 13 14 17 18 20 20 19 16 16 17 17 16 16 16 16 15 15 13 13 13 12 10 9 7 6 5 5
6 1 3 4 3 6 4 3 5 14 9 6 4 3 3 2 5 5 8 16 14 14 14 14 17 17 20 21 21 17 16 16 16 16 16 15 15 14 13 13 11 12 12 11 9 7 6 5 3
4 4 4 4 8 12 0 7 5 9 9 10 5 6 4 3 0 10 15 20 17 12 13 19 18 17 18 21 21 20 16 16 15 15 14 14 14 14 13 12 10 9 10 10 9 8 5 3 1
2 3 1 2 7 10 7 5 7 7 3 3 9 4 3 7 4 17 16 16 17 14 13 15 19 16 17 19 20 20 17 16 15 14 14 14 13 12 11 12 10 9 9 9 8 8 6 5 4
3 3 3 5 7 6 8 9 5 5 8 8 5 4 1 1 1 7 14 15 15 17 13 15 20 20 15 17 19 20 19 17 16 16 14 13 13 12 12 11 9 8 7 7 7 7 7 6 5
5 3 4 5 5 10 11 6 11 12 12 17 4 6 3 3 3 4 13 14 17 14 13 13 15 17 18 15 18 19 19 18 16 16 15 13 12 12 11 10 9 8 7 7 6 7 7 6 5
4 5 4 5 7 9 16 5 6 9 21 10 6 6 5 5 7 10 8 11 12 13 12 11 12 14 14 11 17 19 19 18 16 15 14 13 12 11 11 10 9 8 7 7 8 9 8 7 5
2 2 6 7 6 7 17 5 7 8 7 14 9 3 7 5 5 11 12 11 8 10 11 9 12 14 14 11 12 14 18 18 17 15 14 11 5 7 8 9 10 9 9 9 10 11 9 7 6
5 4 7 5 5 7 15 11 12 7 13 7 2 4 5 4 7 10 10 10 9 11 12 9 8 14 15 10 11 11 10 9 8 9 9 6 6 6 7 9 12 12 12 12 13 13 10 7 3
5 7 4 7 9 9 17 23 10 7 9 8 7 9 7 6 6 9 5 9 14 12 10 12 10 8 16 12 9 6 6 7 6 9 8 6 5 5 4 3 4 4 10 5 8 5 3 4 3
6 8 12 14 15 15 18 20 21 9 11 10 8 8 2 7 6 9 7 6 14 14 14 14 14 11 7 8 11 10 8 5 5 7 9 7 4 5 5 4 5 5 4 6 4 3 5 5 6
5 7 12 17 18 17 19 21 23 24 9 9 9 9 9 9 8 5 7 8 9 9 12 13 13 13 9 6 5 10 9 8 7 6 8 7 6 7 5 6 5 5 4 5 4 4 5 5 6
5 5 9 8 10 7 13 19 15 27 8 8 7 8 10 10 11 5 9 6 7 6 12 14 15 13 8 10 8 7 8 9 8 8 8 9 7 6 6 5 6 5 5 5 4 5 4 4 4
6 7 8 4 4 5 3 8 14 9 5 9 9 9 9 11 8 12 11 10 13 8 9 13 15 14 13 13 12 10 10 9 8 8 9 11 9 9 8 6 5 7 5 6 4 5 3 3 4
6 4 4 5 6 7 6 16 17 10 7 17 8 9 10 11 12 10 8 9 8 10 10 9 10 15 17 15 12 9 10 10 10 10 9 12 11 10 9 8 7 5 4 4 3 4 4 4 4
5 5 9 9 5 5 5 18 12 10 10 13 18 8 10 10 10 8 10 10 11 9 9 8 8 7 5 3 6 8 10 10 9 9 10 14 15 12 8 7 7 6 5 5 4 4 4 4 5
6 5 7 7 7 4 8 13 16 14 9 16 18 17 9 9 12 10 10 7 8 9 9 8 7 7 4 3 2 1 2 8 5 6 8 13 10 13 10 6 5 5 4 4 2 4 3 4 4
8 12 16 16 9 3 7 8 13 8 8 15 16 9 9 9 10 9 9 10 8 6 8 8 9 6 3 2 3 2 3 3 4 7 3 8 11 13 11 7 6 5 6 5 5 3 4 4 1
13 16 16 10 6 4 9 11 15 9 8 8 9 8 8 4 7 6 11 11 10 10 8 8 8 8 5 2 1 2 2 2 3 3 8 7 2 7 8 9 7 6 4 5 5 5 2 3 4
11 7 7 11 6 4 6 10 12 15 6 9 8 8 6 10 10 7 12 12 11 10 10 9 8 7 5 5 3 2 2 1 1 4 3 8 11 8 6 9 8 9 7 8 6 6 7 7 2
5 5 13 13 7 11 6 14 9 8 8 8 8 8 8 8 7 8 14 11 14 10 7 8 8 8 5 6 4 3 2 3 4 2 3 4 9 11 5 6 12 10 6 6 6 4 6 4 5
6 3 4 7 12 4 6 2 12 4 10 10 10 9 9 10 9 15 16 16 8 9 8 8 7 6 4 5 5 4 2 3 3 2 5 5 6 7 10 9 10 8 7 5 6 5 5 5 5
3 1 3 2 3 8 14 5 14 10 11 6 6 12 12 11 10 12 12 14 9 8 9 8 9 6 5 5 4 5 4 3 2 2 4 4 5 6 11 11 12 10 9 11 9 8 7 7 7
9 7 6 5 3 14 12 7 17 11 9 13 14 10 16 17 9 16 18 14 14 12 10 9 9 7 7 7 4 5 6 6 6 6 4 5 4 2 4 7 9 9 12 11 10 9 8 8 6
3 6 5 6 5 9 6 10 19 5 10 14 7 7 10 17 15 18 17 15 15 13 11 10 9 6 8 7 7 6 7 4 5 6 5 4 4 4 4 4 6 8 8 6 4 4 4 7 9
3 5 4 3 3 4 6 9 15 19 13 8 8 7 16 8 9 15 12 13 10 11 11 11 9 7 8 8 7 7 6 6 6 8 6 4 5 5 7 5 6 4 7 5 6 6 7 9 6
3 2 1 1 3 6 5 5 9 7 8 8 8 8 13 11 5 5 7 8 8 8 8 9 10 11 11 9 7 7 7 7 6 5 6 6 6 5 5 3 4 4 6 7 4 4 5 5 8
1 0 4 1 3 4 5 5 5 2 5 3 3 5 6 9 7 2 6 7 9 8 8 10 10 11 10 10 8 8 6 7 7 6 6 6 3 4 5 5 4 5 5 5 5 6 6 11 15
3 5 5 4 3 4 2 9 14 9 9 6 2 5 4 1 3 4 8 7 4 8 7 9 12 10 10 8 7 8 7 5 4 5 5 3 3 2 2 4 5 6 5 6 5 7 8 10 11
Wind_Direction
328 307 284 39 55 68 255 280 227 312 15 19 331 70 77 19 147 189 349 161 132 147 154 155 157 153 144 136 131 131 129 124 121 121 121 120 117 119 117 118 122 124 125 122 119 110 101 96 92
319 322 33 78 90 103 263 221 8 288 286 121 97 80 64 71 17 108 92 144 146 147 152 154 159 157 146 139 136 137 135 132 129 130 131 130 128 127 126 127 132 132 131 129 122 116 108 88 79
301 208 79 110 141 207 207 90 331 317 302 17 57 61 88 158 105 143 131 141 144 151 149 155 157 163 150 145 140 141 141 137 137 139 138 137 134 135 133 133 140 140 140 135 131 124 112 105 88
321 1 18 109 233 258 243 320 290 325 332 25 16 42 27 293 275 155 155 149 146 156 156 154 156 165 157 150 144 143 145 141 141 141 141 143 142 143 141 138 144 146 143 140 138 134 137 139 151
11 65 37 243 252 272 287 277 267 288 240 4 52 67 29 351 117 144 153 153 153 156 158 151 153 163 163 155 148 144 144 143 145 145 149 149 146 145 144 143 148 154 153 151 152 151 161 172 202
347 93 115 231 259 274 303 311 285 282 295 305 80 100 274 255 58 161 154 159 161 155 158 150 152 165 167 159 152 146 146 150 151 151 153 153 152 154 152 150 151 160 162 160 165 175 180 195 220
152 99 207 229 270 296 278 358 312 320 276 274 172 138 215 293 151 202 167 163 159 151 153 152 151 162 169 163 156 151 150 153 156 154 154 157 160 161 158 157 158 170 179 179 188 198 206 210 236
141 122 208 221 245 268 277 342 321 321 302 284 151 163 216 237 105 60 84 148 149 147 152 152 147 151 167 167 163 157 155 156 156 156 157 159 163 166 163 164 170 179 195 200 208 219 217 219 233
110 112 220 224 227 262 293 298 307 298 268 211 245 159 198 159 120 88 84 95 126 141 145 152 155 151 158 167 171 162 159 158 158 160 162 160 162 167 173 178 183 188 201 215 224 228 221 218 232
155 189 225 210 246 261 279 277 300 331 302 296 309 74 117 91 94 98 107 139 164 157 152 149 169 156 148 160 170 173 168 160 162 162 167 169 172 171 179 191 197 200 206 218 229 230 228 220 205
206 232 243 264 251 256 269 278 278 242 278 260 242 241 185 130 107 106 98 160 169 164 159 159 162 188 156 153 159 175 174 170 166 167 166 172 177 188 186 193 205 207 215 218 232 241 214 190 195
248 261 238 248 245 253 262 274 272 223 233 248 275 260 127 152 145 129 110 113 147 166 167 169 166 173 204 162 161 168 174 172 178 181 176 171 178 187 199 200 208 205 211 220 219 215 207 196 207
185 258 251 245 247 246 254 259 266 265 214 236 262 299 221 188 165 152 140 121 130 157 165 172 169 176 168 179 179 163 173 180 182 184 192 181 182 193 188 204 201 209 199 216 201 224 227 214 213
283 276 272 266 253 254 255 265 265 266 171 208 226 257 261 182 173 196 151 151 144 155 172 164 173 176 171 168 170 181 171 179 183 188 199 197 189 191 197 207 212 216 206 214 187 210 229 225 207
290 311 314 270 242 246 237 277 251 272 276 189 211 231 242 259 191 185 187 169 156 172 161 176 172 165 176 184 183 179 173 169 180 195 195 200 194 200 192 199 213 217 205 218 189 218 228 214 233
340 2 332 283 312 284 149 267 272 276 270 285 209 211 224 233 199 224 212 164 185 151 166 155 177 187 180 181 187 194 183 176 184 188 190 199 212 205 198 204 207 203 208 191 194 227 241 238 210
337 259 285 305 252 253 178 277 264 264 243 258 276 227 210 226 233 219 204 182 183 169 152 145 125 123 187 188 186 186 180 177 187 190 192 197 199 201 207 212 214 194 205 202 193 205 189 201 222
248 265 263 272 288 210 264 257 273 277 232 245 246 256 209 203 229 233 205 186 161 153 143 130 115 113 110 122 77 249 219 168 156 184 217 193 204 211 196 205 202 180 207 232 195 235 236 215 210
245 259 264 273 262 273 244 262 284 273 285 263 237 214 251 242 212 188 158 139 127 134 132 137 130 132 116 117 145 169 230 253 205 140 199 243 191 208 191 209 196 199 191 199 199 202 228 265 213
248 251 260 262 252 250 288 277 283 284 260 232 223 216 216 214 165 183 147 150 161 156 144 133 135 139 130 137 158 148 166 209 277 194 149 222 215 233 184 201 197 203 180 181 208 178 225 265 184
259 239 262 262 264 270 329 294 292 291 255 255 225 224 204 197 197 190 165 169 158 161 164 154 147 136 130 127 128 124 94 357 96 252 199 189 183 220 215 208 186 218 199 213 191 191 184 256 242
293 352 7 326 299 275 163 270 276 272 295 286 280 295 257 223 190 182 177 176 171 172 152 150 151 149 157 140 115 145 175 198 214 238 290 188 180 171 215 235 217 182 213 221 207 191 216 166 248
251 347 3 344 326 291 248 198 268 331 293 278 287 297 289 286 225 187 190 177 169 137 153 157 153 154 159 150 146 154 196 232 291 276 243 249 239 203 180 202 254 191 194 217 218 204 198 191 183
274 338 360 9 64 276 295 204 268 251 256 266 262 287 286 281 228 193 173 149 154 149 156 158 157 167 166 160 167 179 202 241 283 272 286 243 243 214 218 204 205 216 213 195 214 199 207 205 201
48 46 334 334 291 261 259 260 249 270 263 242 259 298 295 293 192 165 158 161 158 161 157 157 161 173 175 173 189 202 213 207 232 237 226 239 272 247 266 210 200 201 221 210 186 193 185 184 211
124 139 176 240 253 283 10 251 255 282 291 263 257 261 318 277 170 161 163 159 164 165 164 160 164 175 181 180 207 208 218 203 210 221 225 231 240 245 214 263 251 226 217 230 181 195 156 219 215
143 181 173 220 325 286 233 276 277 273 283 264 233 36 342 346 150 149 163 173 170 168 173 169 164 182 195 197 204 208 208 208 215 227 220 221 228 237 233 194 231 240 256 224 181 223 214 209 208
149 154 197 288 261 256 268 261 255 0 354 11 352 34 28 338 103 135 159 177 183 180 172 167 169 186 201 199 196 212 213 214 218 225 243 240 253 249 263 238 233 265 261 278 269 241 268 283 256
251 75 30 190 181 221 268 267 323 319 279 74 28 10 36 17 332 232 175 186 178 178 173 185 187 190 198 187 193 204 211 218 218 212 230 232 248 272 306 313 313 263 255 267 262 261 245 222 235
140 166 161 153 260 231 231 241 258 244 289 298 337 158 202 144 64 29 8 335 219 189 183 188 197 198 203 202 195 195 207 220 204 214 195 213 256 319 337 327 304 299 297 273 257 259 263 251 246